Location: Tamazert
(32.6352°N, 5.2072°W)
Time: 20:52:41
(UTC+00:00)

Vanguard 3 - Pass Details

Date: 08 October 2022
Orbit: 509 x 3255 km, 33.3° (Epoch: 02 December)

Event Time Altitude Azimuth Distance (km) Brightness Sun altitude
Rises 07:34:25 0° 255° (WSW) 2,644 9.3 14.6°
Reaches altitude 10° 07:36:34 10° 253° (WSW) 1,714 8.4 15.0°
Maximum altitude 07:40:12 77° 168° (SSE) 545 6.7 15.7°
Drops below altitude 10° 07:44:32 10° 82° (E) 2,029 10.5 16.6°
Sets 07:47:16 0° 81° (E) 3,196 11.3 17.1°
